Montrose, CO

6:02 PM MST on February 13, 2016 (GMT -0700)
Montrose Regional

Weather History for KMTJ - February, 2014

Change the Weather History Date:

Saturday, February 8, 2014

  Actual Average Record
Temperature  
Mean Temperature 38 °F 31 °F  
Max Temperature 45 °F 42 °F 63 °F (2015)
Min Temperature 30 °F 19 °F 10 °F (2003)
Degree Days  
Heating Degree Days 27 34  
Month to date heating degree days 330 282  
Since 1 July heating degree days 4246 4087  
Cooling Degree Days 0 0  
Month to date cooling degree days 0 0  
Year to date cooling degree days 0 0  
Moisture  
Dew Point 27 °F    
Average Humidity 64    
Maximum Humidity 78    
Minimum Humidity 49    
Precipitation  
Precipitation 0.00 in 0.02 in 0.14 in (2001)
Month to date precipitation 0.12 0.13  
Year to date precipitation 0.77 0.78  
Sea Level Pressure  
Sea Level Pressure 30.01 in    
Wind  
Wind Speed 4 mph (ESE)    
Max Wind Speed 10 mph    
Max Gust Speed 15 mph    
Visibility 10 miles    
Events      
T = Trace of Precipitation, MM = Missing Value Source: NWS Daily Summary

Daily Weather History Graph

Daily Weather History Graph

Search for Another Location

Airport or City:

Trip Planner

Search our weather history database for the weather conditions in past years. The results will help you decide how hot, cold, wet, or windy it might be!

Date:

Astronomy

Feb. 08, 2014 Rise Set
Actual Time 7:10 AM MST 5:41 PM MST
Civil Twilight 6:42 AM MST 6:09 PM MST
Nautical Twilight 6:11 AM MST 6:40 PM MST
Astronomical Twilight 5:40 AM MST 7:11 PM MST
Moon 12:39 PM MST (2/8) 2:24 AM MST (2/8)
Length of Visible Light 11h 26m
Length of Day
10h 31m
Waxing Gibbous, 69% of the Moon is Illuminated
Feb 8
Waxing Gibbous
Feb 14
Full
Feb 22
Last Quarter
Mar 1
New
Mar 8
First Quarter

Hourly Weather History & Observations

Time (MST) Temp. Windchill Dew Point Humidity Pressure Visibility Wind Dir Wind Speed Gust Speed Precip Events Conditions
12:53 AM 35.1 °F 28.6 °F 23.0 °F 61% 29.96 in 10.0 mi South 8.1 mph - N/A   Overcast
1:53 AM 33.1 °F - 24.1 °F 70% 29.97 in 10.0 mi Calm Calm - N/A   Overcast
2:53 AM 35.1 °F 29.3 °F 23.0 °F 61% 29.93 in 10.0 mi SE 6.9 mph - N/A   Mostly Cloudy
3:53 AM 34.0 °F 29.8 °F 23.0 °F 64% 29.92 in 10.0 mi South 4.6 mph - N/A   Mostly Cloudy
4:53 AM 30.9 °F 25.2 °F 25.0 °F 79% 29.96 in 10.0 mi NW 5.8 mph - N/A   Overcast
5:53 AM 33.1 °F - 25.0 °F 72% 29.96 in 10.0 mi Calm Calm - N/A   Overcast
6:53 AM 32.0 °F - 25.0 °F 75% 30.00 in 10.0 mi Calm Calm - N/A   Overcast
7:53 AM 32.0 °F 27.5 °F 26.1 °F 79% 30.02 in 10.0 mi East 4.6 mph - N/A   Overcast
8:53 AM 36.0 °F 33.3 °F 27.0 °F 70% 30.05 in 10.0 mi ENE 3.5 mph - N/A   Overcast
9:53 AM 39.0 °F - 27.0 °F 62% 30.05 in 10.0 mi Calm Calm - N/A   Overcast
10:53 AM 39.9 °F 35.1 °F 27.0 °F 60% 30.04 in 10.0 mi ESE 6.9 mph - N/A   Clear
11:53 AM 43.0 °F 38.8 °F 27.0 °F 53% 30.03 in 10.0 mi East 6.9 mph - N/A   Clear
12:53 PM 41.0 °F - 28.9 °F 62% 30.03 in 10.0 mi Calm Calm - N/A   Clear
1:53 PM 43.0 °F 40.3 °F 28.0 °F 56% 30.01 in 10.0 mi ESE 4.6 mph - N/A   Scattered Clouds
2:53 PM 45.0 °F 40.6 °F 27.0 °F 49% 30.00 in 10.0 mi East 8.1 mph - N/A   Mostly Cloudy
3:53 PM 44.1 °F 40.8 °F 28.0 °F 53% 30.01 in 10.0 mi ENE 5.8 mph - N/A   Overcast
4:53 PM 42.1 °F 38.4 °F 30.0 °F 62% 30.03 in 10.0 mi East 5.8 mph - N/A   Overcast
5:53 PM 41.0 °F 37.1 °F 28.9 °F 62% 30.03 in 10.0 mi East 5.8 mph - N/A   Overcast
6:53 PM 39.0 °F 33.4 °F 30.0 °F 70% 30.05 in 10.0 mi East 8.1 mph - N/A   Overcast
7:53 PM 39.9 °F - 28.9 °F 65% 30.06 in 10.0 mi Calm Calm - N/A   Overcast
8:53 PM 37.9 °F - 30.0 °F 73% 30.05 in 10.0 mi Calm Calm - N/A   Overcast
9:53 PM 39.0 °F 34.0 °F 30.0 °F 70% 30.03 in 10.0 mi SSE 6.9 mph - N/A   Overcast
10:53 PM 43.0 °F 41.3 °F 28.9 °F 58% 30.03 in 10.0 mi SSW 3.5 mph - N/A   Overcast
11:53 PM 41.0 °F 37.1 °F 30.9 °F 67% 29.99 in 10.0 mi ESE 5.8 mph - N/A   Overcast